Location: Abundant Grace Fellowship
(35.0349°N, 90.0924°W)
Time: 22:15:38
(UTC+00:00)

Cosmos 1934 Rocket - Pass Details

Date: 18 January 2026
Orbit: 938 x 998 km, 83.0° (Epoch: 13 February)

Event Time Altitude Azimuth Distance (km) Brightness Sun altitude
Rises 01:15:06 0° 350° (N) 3,637 7.0 -24.5°
Reaches altitude 10° 01:17:36 10° 348° (NNW) 2,696 6.3 -25.0°
Maximum altitude 01:23:42 67° 267° (W) 1,047 4.3 -26.2°
Drops below altitude 10° 01:29:52 10° 186° (S) 2,722 6.5 -27.5°
Sets 01:32:24 0° 184° (S) 3,674 7.1 -28.0°
